NOAA 1 1 4793U 70106A 25188.91859968 -.00000033 00000-0 61881-4 0 9991 2 4793 101.3879 232.8937 0031018 302.2358 231.1391 12.54043710498024 NOAA 2 (ITOS-D) 1 06235U 72082A 25188.90150825 -.00000019 00000-0 17525-3 0 9993 2 06235 102.0205 198.4700 0004539 105.1180 319.1870 12.53201964411822 NOAA 3 1 06920U 73086A 25188.96861135 -.00000026 00000-0 15480-3 0 9994 2 06920 102.2884 194.5620 0006789 40.8007 14.4505 12.40383612339228 NOAA 4 1 07529U 74089A 25188.95112792 -.00000030 00000-0 10126-3 0 9998 2 07529 102.0030 193.0778 0009343 131.1579 256.6314 12.53195286316405 NOAA 5 1 09057U 76077A 25188.94446731 -.00000027 00000-0 14770-3 0 9992 2 09057 102.2587 168.5315 0009229 249.6153 123.0041 12.37819347211885 TIROS N 1 11060U 78096A 25188.82822825 .00000126 00000-0 79869-4 0 9991 2 11060 98.4859 219.9280 0010960 154.3551 205.8172 14.19203492629900 NOAA 6 1 11416U 79057A 25188.93480292 .00000218 00000-0 91641-4 0 9998 2 11416 98.5978 215.2711 0009625 191.9874 168.1084 14.35197464401570 NOAA 7 1 12553U 81059A 25189.19189864 .00000021 00000-0 31884-4 0 9991 2 12553 98.8425 253.7956 0011712 167.0150 193.1329 14.17711397276221 NOAA 8 1 13923U 83022A 25188.88888732 .00000092 00000-0 53411-4 0 9998 2 13923 98.7366 195.8905 0014717 181.1351 178.9799 14.29641701201879 NOAA 9 1 15427U 84123A 25188.96767183 .00000065 00000-0 55585-4 0 9991 2 15427 99.1211 202.1594 0013690 242.9865 132.0523 14.16933291 94673 NOAA 10 1 16969U 86073A 25189.25143198 .00000089 00000-0 52698-4 0 9994 2 16969 98.6753 178.4953 0010920 284.0671 86.5609 14.29015998 20541 NOAA 11 1 19531U 88089A 25188.83734224 .00000028 00000-0 35831-4 0 9993 2 19531 98.5721 141.6498 0010542 201.1735 158.9005 14.15751473898750 NOAA 12 1 21263U 91032A 25188.91765216 .00000057 00000-0 41710-4 0 9999 2 21263 98.5883 178.1260 0012839 318.3097 41.7104 14.26616798776137 NOAA 13 1 22739U 93050A 25189.09831719 .00000054 00000-0 50993-4 0 9992 2 22739 98.6575 139.1692 0010191 37.0373 323.1502 14.13534939645004 NOAA 14 1 23455U 94089A 25188.95544857 .00000024 00000-0 33903-4 0 9998 2 23455 98.4651 170.3118 0009433 0.5372 359.5811 14.14589896574532 NOAA 15 1 25338U 98030A 25189.13899880 .00000173 00000-0 88678-4 0 9994 2 25338 98.5339 213.5812 0008988 276.4678 83.5479 14.26993415412473 NOAA 16 1 26536U 00055A 25189.16345171 .00000064 00000-0 55389-4 0 9999 2 26536 98.4870 216.2115 0009922 202.9922 157.0809 14.13814278278619 NOAA 17 1 27453U 02032A 25189.16530366 .00000094 00000-0 58277-4 0 9999 2 27453 98.8138 146.8109 0010462 269.3266 90.6715 14.26025114197962 NOAA 18 1 28654U 05018A 25189.21727434 .00000057 00000-0 53693-4 0 9996 2 28654 98.8422 268.3715 0015035 51.5842 308.6678 14.13617326 37799 NOAA 19 1 33591U 09005A 25189.15756416 .00000144 00000-0 10076-3 0 9991 2 33591 98.9962 254.0210 0012676 283.9306 76.0456 14.13386357846145 NPP 1 37849U 11061A 25189.15856301 .00000038 00000-0 38756-4 0 9998 2 37849 98.7580 128.1119 0000778 175.9131 184.2051 14.19544396709623